Wind_Speed
26 26 26 26 27 27 27 27 27 27 27 27 27 27 27 26 24 22 20 19 18 18 17 17 17 16 16 16 17 17 17 17 17 17 16 16 16 16 16 15 15 15 15
31 31 31 31 32 32 32 32 31 31 31 31 31 32 32 31 29 27 25 23 22 21 20 19 19 19 18 18 18 18 18 19 19 19 19 18 18 18 18 17 16 16 16
35 35 35 36 36 36 36 36 36 35 35 35 35 35 36 35 33 32 30 27 25 24 23 22 21 21 21 20 20 20 20 20 21 21 21 21 20 20 20 19 19 18 17
38 38 39 39 40 40 40 40 40 39 39 39 38 38 38 38 37 36 35 32 30 28 26 25 24 24 23 23 23 23 22 22 22 23 23 23 23 22 22 22 21 21 20
40 41 42 42 42 43 44 44 43 42 41 41 42 41 40 40 40 39 38 36 34 31 29 27 26 25 25 25 25 25 25 24 24 24 25 25 25 25 25 25 24 23 23
42 43 44 44 45 45 46 46 45 45 43 43 43 43 41 41 41 40 39 38 36 34 32 30 28 27 27 27 27 26 26 26 26 26 26 26 27 27 28 28 27 27 26
45 46 45 46 47 47 47 46 45 44 44 44 44 43 42 41 40 39 37 37 37 36 34 32 31 29 28 27 28 28 27 27 28 28 28 29 29 29 29 30 30 30 29
47 47 46 47 47 46 45 44 44 42 42 41 41 41 40 38 37 36 35 35 34 34 33 33 31 31 30 28 28 28 28 28 28 29 30 30 31 30 30 31 32 31 31
48 48 48 47 48 47 46 45 43 41 41 40 39 38 37 37 36 33 32 32 33 32 33 32 31 30 29 28 27 27 27 28 29 30 30 31 32 32 32 32 32 33 33
49 49 50 49 48 47 47 45 43 42 40 39 38 37 36 34 33 31 31 31 31 31 31 30 30 29 28 28 27 26 26 27 28 29 30 31 32 33 34 34 34 35 35
51 51 50 50 49 48 47 45 43 42 40 38 36 36 35 33 31 29 28 29 30 30 29 29 29 29 28 27 26 25 25 26 27 28 29 31 33 34 35 36 36 36 36
52 51 51 51 50 49 47 45 43 42 40 38 36 35 34 33 30 29 29 29 29 30 29 29 28 28 27 26 26 25 25 26 26 27 29 31 32 34 35 37 38 39 38
52 52 52 52 51 50 47 45 43 42 40 37 36 35 32 31 30 29 29 28 28 29 29 28 27 26 26 26 26 25 26 26 27 28 29 30 32 34 35 37 38 39 39
53 53 54 53 52 50 47 44 43 42 40 38 35 33 32 31 30 29 28 27 27 28 28 27 26 26 26 26 25 26 26 27 28 28 29 30 31 33 34 36 38 39 39
54 54 53 52 50 48 47 44 42 41 39 37 36 34 33 31 30 29 28 28 28 27 28 28 27 26 26 27 27 27 28 28 29 30 30 30 31 32 33 35 36 38 39
51 51 51 49 48 47 46 44 42 40 38 37 36 35 33 32 30 29 28 28 28 28 28 28 28 28 28 29 29 30 31 31 31 31 31 31 31 32 33 35 36 38 39
46 47 46 45 44 43 43 42 42 41 39 37 35 33 33 31 29 28 27 27 28 28 28 29 30 29 30 31 31 32 32 33 33 33 33 33 33 33 33 34 36 37 37
39 38 37 37 38 37 38 37 36 36 36 35 33 32 31 29 29 27 27 26 27 28 28 29 30 31 32 33 33 34 34 35 35 35 35 35 35 34 34 34 35 35 37
31 31 33 33 33 34 34 33 32 33 34 33 31 30 29 27 26 26 26 26 26 27 28 29 30 31 32 33 34 35 36 36 37 36 36 36 36 35 35 35 34 35 35
28 26 26 28 28 29 31 32 31 31 31 30 29 28 26 24 24 25 25 25 26 26 27 29 30 31 32 34 35 36 37 38 38 38 38 37 37 36 36 35 34 34 33
23 20 21 22 23 24 27 28 27 28 28 26 25 23 22 22 23 23 23 23 24 25 26 28 29 31 32 34 35 36 38 39 39 39 39 38 37 37 36 35 35 34 33
19 18 17 17 18 20 22 24 25 24 24 23 21 19 19 20 21 22 21 21 22 23 24 26 28 30 32 34 35 37 38 38 39 40 40 40 39 38 36 35 35 34 33
17 15 14 14 14 15 17 19 19 20 19 18 18 17 17 18 18 18 18 19 20 22 24 26 28 30 32 34 35 37 38 38 38 38 39 39 38 37 37 36 34 34 34
14 13 12 11 11 12 13 15 16 16 17 17 17 16 15 15 15 15 16 17 19 20 22 25 27 29 31 33 34 35 36 36 37 37 37 37 37 36 35 35 34 33 33
12 12 11 11 11 11 12 12 13 13 13 13 12 12 12 13 13 13 14 16 18 20 22 24 27 29 31 33 34 35 35 35 35 35 35 35 35 35 34 34 33 33 32
12 12 11 10 10 10 10 10 10 10 10 10 10 10 10 10 11 12 14 15 17 20 22 25 27 29 31 31 32 32 33 32 32 32 32 32 32 32 32 32 32 32 31
Wind_Direction
296 295 295 294 293 292 292 291 289 288 286 285 284 284 283 282 281 281 282 285 288 292 296 300 300 301 300 298 293 287 282 279 277 276 275 275 276 276 276 274 272 269 268
295 294 294 294 293 292 291 290 288 286 285 284 283 282 282 280 279 280 279 280 283 286 290 293 294 294 295 295 294 290 284 279 276 274 273 271 271 272 273 273 271 269 266
293 293 294 293 292 291 291 289 287 285 283 283 282 281 280 279 276 276 278 278 279 281 284 288 290 290 290 290 290 289 285 280 276 273 272 270 269 268 269 269 269 268 267
291 292 291 291 291 290 289 287 287 286 285 283 282 281 278 276 273 272 274 277 278 279 280 284 286 287 287 286 286 285 284 281 277 274 271 269 268 266 265 265 266 266 266
289 289 290 290 289 289 287 286 286 286 285 284 282 280 278 274 273 269 268 272 275 278 281 282 284 285 286 285 283 282 280 279 277 273 271 269 267 266 264 263 263 264 264
287 287 287 288 289 289 287 286 285 286 285 285 284 282 280 275 273 271 268 269 273 277 280 283 284 285 285 285 283 281 279 277 275 273 271 268 266 265 263 261 261 262 262
286 286 285 287 289 289 288 287 287 288 286 286 284 283 282 277 273 269 269 270 271 275 280 283 285 286 286 285 283 281 278 275 273 272 270 268 266 265 264 262 260 260 259
284 284 284 286 288 289 289 288 289 288 288 287 286 285 281 277 272 270 269 269 271 275 279 282 284 287 288 286 284 282 280 276 273 271 270 268 267 266 264 263 260 259 258
282 283 285 285 286 287 288 288 288 287 286 284 286 284 279 276 274 270 268 268 271 275 280 282 284 286 287 287 285 283 280 277 274 272 270 268 266 265 264 263 261 259 257
280 281 283 284 285 286 286 286 288 285 284 283 283 280 277 274 268 265 268 269 271 275 279 282 285 286 287 286 286 284 282 279 276 273 272 270 268 265 264 263 262 261 258
279 280 281 281 282 282 284 284 284 282 282 280 278 276 270 269 266 265 266 270 274 276 279 282 285 287 286 286 286 285 282 281 278 276 274 271 269 267 265 263 262 263 261
278 278 278 279 279 280 282 282 282 281 277 276 274 271 268 265 266 267 268 270 274 278 281 283 284 285 286 287 286 285 283 283 282 280 277 275 271 268 266 264 263 263 262
278 277 277 276 277 278 278 278 279 277 274 271 269 267 264 264 266 268 269 270 273 277 280 282 282 283 284 285 286 286 285 284 284 283 281 279 275 272 268 266 264 263 264
278 277 276 275 275 274 272 274 274 274 271 268 265 263 262 263 264 266 268 271 273 276 279 280 279 281 283 284 285 286 287 287 287 286 285 282 280 277 273 269 267 264 264
279 277 275 274 272 269 268 268 269 270 266 262 262 261 260 262 264 266 267 270 272 274 276 278 279 280 282 283 284 285 286 287 288 288 287 285 283 280 276 272 269 266 265
278 276 274 271 268 265 266 265 264 264 262 261 260 260 260 263 265 266 268 270 271 274 276 276 278 280 282 283 283 284 285 286 287 288 287 286 285 283 279 275 272 268 265
280 276 272 268 265 264 264 262 261 258 259 258 257 258 260 260 262 266 268 270 272 274 276 277 279 281 283 284 285 285 285 285 285 286 286 285 284 283 282 279 275 271 267
280 274 270 268 264 262 261 259 256 254 255 254 255 257 258 259 263 266 268 270 272 274 276 278 281 283 284 285 285 285 285 285 284 284 283 283 283 282 281 280 277 273 268
283 276 271 268 263 258 255 254 253 252 250 250 251 253 256 260 265 268 270 271 273 275 278 281 283 284 284 284 285 284 284 284 283 282 281 281 281 281 280 279 277 274 270
286 281 270 266 259 256 252 252 250 245 246 246 247 251 256 260 265 268 269 272 275 278 281 283 285 286 286 286 286 286 285 284 283 281 280 279 278 277 278 277 276 274 270
289 285 274 265 258 252 248 245 241 240 242 245 245 249 255 260 264 267 270 274 277 281 284 285 287 288 288 288 288 288 287 285 283 281 280 278 276 275 274 274 274 272 269
290 285 278 272 261 250 242 238 239 238 243 244 247 252 256 261 266 268 271 275 279 283 287 289 291 292 292 292 291 290 289 286 284 281 279 277 275 273 272 271 270 268 265
294 284 274 269 259 248 242 234 231 234 235 240 247 250 255 260 264 269 274 279 283 287 291 294 296 297 297 296 295 293 291 289 286 283 280 276 273 271 269 268 267 266 262
292 286 274 265 259 251 243 235 233 235 239 242 244 247 251 257 264 271 277 284 289 294 298 301 302 303 302 301 299 296 293 290 289 286 281 277 272 269 266 264 263 263 261
287 289 282 271 263 254 245 239 236 234 234 237 241 244 250 258 264 273 282 289 294 299 303 305 307 307 307 305 302 299 297 294 291 287 282 278 273 269 265 262 260 260 257
285 284 281 269 260 251 246 241 233 230 231 234 240 244 249 258 269 280 289 295 300 305 308 310 311 311 310 309 307 304 301 298 294 289 284 279 274 269 264 261 259 257 257
Height
5906 5905 5904 5903 5902 5901 5900 5899 5898 5897 5896 5895 5894 5893 5892 5891 5890 5890 5889 5888 5886 5885 5884 5883 5882 5881 5880 5880 5879 5879 5879 5879 5879 5879 5879 5879 5879 5880 5880 5880 5880 5880 5880
5901 5900 5899 5898 5896 5895 5894 5893 5892 5891 5890 5889 5888 5887 5886 5885 5885 5884 5884 5883 5882 5881 5880 5879 5878 5877 5876 5875 5875 5874 5874 5874 5874 5874 5875 5875 5875 5875 5876 5876 5876 5876 5876
5895 5894 5893 5892 5890 5889 5888 5886 5885 5884 5883 5882 5882 5881 5880 5879 5878 5878 5877 5877 5877 5876 5876 5875 5874 5873 5872 5871 5870 5869 5869 5868 5869 5869 5869 5870 5870 5871 5871 5872 5872 5873 5873
5887 5887 5885 5884 5883 5882 5880 5879 5877 5876 5875 5874 5873 5872 5871 5871 5871 5870 5870 5870 5870 5870 5870 5869 5868 5867 5866 5865 5864 5864 5863 5863 5863 5863 5864 5864 5865 5865 5866 5867 5867 5868 5869
5880 5878 5877 5876 5874 5873 5872 5870 5869 5868 5866 5865 5864 5863 5862 5862 5862 5862 5862 5863 5863 5863 5862 5862 5862 5861 5860 5859 5858 5858 5857 5857 5856 5857 5857 5858 5859 5860 5860 5861 5862 5863 5864
5872 5870 5869 5867 5866 5864 5863 5861 5860 5858 5857 5855 5854 5853 5852 5852 5852 5853 5854 5854 5855 5855 5855 5854 5854 5854 5853 5853 5852 5851 5851 5850 5850 5850 5850 5851 5852 5853 5854 5855 5856 5857 5858
5862 5861 5860 5859 5857 5855 5853 5852 5850 5848 5847 5845 5843 5842 5842 5842 5843 5845 5845 5846 5846 5847 5846 5846 5846 5846 5846 5845 5844 5844 5843 5843 5843 5843 5843 5844 5845 5846 5847 5848 5849 5850 5851
5852 5851 5850 5849 5847 5845 5843 5842 5840 5839 5837 5835 5834 5833 5832 5833 5833 5835 5836 5836 5837 5838 5838 5838 5838 5837 5837 5837 5837 5836 5835 5835 5835 5835 5836 5836 5837 5838 5839 5840 5841 5843 5844
5842 5841 5840 5839 5837 5835 5834 5832 5831 5829 5828 5827 5826 5825 5824 5825 5825 5825 5825 5827 5829 5830 5830 5830 5830 5829 5829 5828 5828 5828 5827 5827 5827 5827 5828 5828 5829 5830 5831 5832 5833 5834 5836
5832 5830 5830 5828 5827 5825 5824 5823 5822 5821 5820 5819 5818 5816 5816 5816 5816 5817 5817 5819 5820 5822 5822 5821 5821 5821 5821 5820 5820 5820 5819 5819 5819 5819 5820 5820 5821 5822 5823 5824 5825 5826 5828
5821 5819 5818 5817 5816 5815 5814 5814 5812 5811 5810 5810 5809 5808 5808 5808 5808 5809 5811 5811 5812 5813 5814 5814 5813 5813 5813 5812 5812 5812 5811 5811 5811 5811 5811 5812 5812 5813 5814 5815 5817 5818 5819
5809 5808 5807 5806 5805 5804 5804 5803 5802 5801 5801 5800 5800 5799 5799 5800 5800 5801 5803 5804 5805 5805 5805 5806 5806 5805 5805 5804 5804 5804 5804 5803 5803 5803 5803 5803 5804 5804 5805 5806 5807 5809 5809
5796 5795 5794 5793 5792 5793 5793 5792 5791 5791 5790 5791 5791 5791 5791 5791 5793 5793 5795 5796 5797 5797 5797 5798 5798 5798 5797 5797 5796 5796 5796 5796 5795 5795 5795 5795 5795 5795 5796 5797 5798 5799 5800
5782 5782 5780 5780 5779 5780 5780 5781 5781 5781 5781 5782 5782 5782 5783 5783 5784 5785 5786 5788 5789 5790 5790 5790 5790 5790 5790 5789 5789 5789 5788 5788 5787 5787 5787 5786 5786 5786 5787 5787 5788 5789 5790
5768 5767 5766 5766 5766 5766 5767 5768 5770 5770 5771 5772 5772 5773 5774 5775 5776 5777 5778 5780 5782 5782 5782 5782 5782 5783 5782 5782 5781 5781 5780 5780 5779 5779 5778 5778 5777 5777 5777 5777 5778 5778 5779
5753 5752 5751 5752 5752 5752 5754 5756 5758 5759 5760 5761 5763 5765 5766 5767 5768 5769 5771 5772 5773 5774 5774 5774 5774 5774 5774 5773 5773 5773 5772 5771 5771 5770 5769 5769 5768 5768 5767 5767 5767 5767 5768
5739 5737 5736 5737 5738 5739 5741 5743 5745 5747 5750 5751 5753 5755 5757 5758 5760 5761 5763 5765 5766 5766 5766 5766 5766 5766 5765 5765 5764 5764 5763 5762 5761 5761 5760 5759 5759 5758 5757 5757 5756 5756 5757
5727 5724 5723 5725 5727 5728 5731 5733 5733 5737 5740 5742 5744 5747 5749 5750 5752 5754 5756 5757 5758 5758 5758 5758 5757 5757 5756 5756 5755 5754 5753 5752 5752 5751 5750 5749 5749 5748 5747 5747 5746 5746 5746
5718 5715 5715 5716 5717 5719 5721 5724 5726 5729 5732 5734 5736 5738 5741 5743 5745 5747 5749 5750 5750 5750 5750 5750 5749 5748 5748 5746 5745 5744 5743 5742 5741 5740 5740 5739 5738 5738 5737 5736 5735 5735 5735
5711 5709 5708 5708 5708 5711 5713 5716 5718 5720 5724 5726 5729 5732 5734 5736 5738 5740 5741 5742 5742 5742 5742 5741 5741 5740 5739 5737 5736 5734 5733 5732 5730 5729 5729 5728 5727 5727 5726 5726 5725 5725 5725
5705 5703 5702 5701 5702 5704 5707 5709 5711 5714 5717 5720 5723 5725 5728 5730 5732 5733 5734 5734 5734 5734 5734 5733 5733 5731 5730 5728 5726 5724 5723 5721 5719 5718 5717 5716 5716 5715 5715 5715 5715 5715 5715
5700 5698 5697 5697 5698 5699 5701 5703 5706 5709 5712 5715 5717 5720 5722 5724 5726 5727 5727 5728 5728 5727 5727 5726 5724 5723 5721 5718 5716 5714 5712 5710 5708 5707 5705 5705 5704 5704 5704 5704 5704 5705 5705
5697 5695 5694 5694 5694 5695 5697 5699 5701 5704 5706 5709 5712 5714 5716 5718 5720 5721 5721 5721 5721 5720 5719 5718 5716 5714 5712 5709 5707 5704 5701 5699 5697 5695 5693 5692 5692 5692 5692 5693 5693 5694 5695
5695 5693 5692 5692 5692 5693 5694 5696 5698 5700 5702 5705 5707 5709 5711 5713 5714 5715 5716 5715 5715 5714 5713 5711 5709 5706 5703 5700 5697 5694 5691 5688 5685 5683 5681 5680 5680 5680 5680 5681 5682 5683 5685
5692 5691 5690 5690 5690 5691 5692 5694 5695 5697 5699 5701 5703 5705 5707 5708 5709 5710 5710 5710 5709 5708 5706 5704 5701 5698 5695 5692 5688 5684 5681 5678 5675 5672 5670 5669 5668 5669 5669 5670 5671 5673 5674
5689 5688 5688 5688 5688 5689 5690 5692 5693 5694 5696 5698 5700 5701 5703 5704 5705 5705 5705 5704 5703 5702 5700 5697 5694 5691 5687 5683 5679 5675 5671 5668 5664 5662 5660 5658 5658 5658 5659 5660 5661 5662 5664